GW1679 Weather Reports


time (UTC)temp
C
wind
direction
speed
KPH
gust
KPH
rain 1hr
cm
rain 24hr
cm
rain mn
cm
humidity
%
barometer
mb
20260504210126 27 206 1.6 3.2 0.00 0.00 0.00 25 1030.2
20260504205624 27 257 1.6 3.2 0.00 0.00 0.00 25 1030.2
20260504205121 27 202 4.8 4.8 0.00 0.00 0.00 25 1030.4
20260504204620 27 211 1.6 9.7 0.00 0.00 0.00 25 1030.3
20260504204118 27 195 6.4 9.7 0.00 0.00 0.00 23 1030.6
20260504203616 27 39 4.8 11.3 0.00 0.00 0.00 25 1030.6
20260504203114 27 238 3.2 9.7 0.00 0.00 0.00 26 1030.5
20260504202609 26 223 3.2 3.2 0.00 0.00 0.00 26 1030.5
20260504202106 26 19 6.4 9.7 0.00 0.00 0.00 25 1030.6
20260504201602 27 232 3.2 11.3 0.00 0.00 0.00 26 1030.7
20260504201100 27 233 3.2 4.8 0.00 0.00 0.00 27 1030.6
20260504200556 27 238 4.8 9.7 0.00 0.00 0.00 24 1030.8
20260504200053 27 31 3.2 4.8 0.00 0.00 0.00 25 1031.1
20260504195550 27 172 1.6 9.7 0.00 0.00 0.00 25 1031.0
20260504195046 26 192 1.6 4.8 0.00 0.00 0.00 25 1031.0
20260504194543 27 354 4.8 11.3 0.00 0.00 0.00 25 1031.0
20260504194038 27 334 4.8 4.8 0.00 0.00 0.00 28 1030.9
20260504193535 26 197 4.8 8.0 0.00 0.00 0.00 25 1030.6
20260504193034 26 342 0.0 8.0 0.00 0.00 0.00 25 1031.0
20260504192532 26 253 4.8 8.0 0.00 0.00 0.00 27 1031.0
20260504192030 26 238 1.6 4.8 0.00 0.00 0.00 28 1031.0
20260504191527 26 229 6.4 9.7 0.00 0.00 0.00 28 1031.3
20260504191023 26 256 8.0 11.3 0.00 0.00 0.00 27 1031.2
20260504190519 26 240 3.2 9.7 0.00 0.00 0.00 26 1031.5
20260504190015 26 215 1.6 4.8 0.00 0.00 0.00 29 1031.4
20260504185513 26 236 3.2 11.3 0.00 0.00 0.00 27 1031.6
20260504185009 25 226 4.8 11.3 0.00 0.00 0.00 29 1031.4
20260504184504 25 263 3.2 3.2 0.00 0.00 0.00 31 1031.5
20260504184000 25 186 1.6 11.3 0.00 0.00 0.00 29 1031.3
20260504183457 25 230 6.4 9.7 0.00 0.00 0.00 29 1031.3
20260504182955 25 220 6.4 20.9 0.00 0.00 0.00 29 1031.6
20260504182452 25 222 4.8 8.0 0.00 0.00 0.00 26 1031.6
20260504181949 25 228 4.8 9.7 0.00 0.00 0.00 31 1031.7
20260504181446 25 269 4.8 16.1 0.00 0.00 0.00 30 1031.5
20260504180945 25 173 3.2 8.0 0.00 0.00 0.00 29 1031.5
20260504180443 24 232 4.8 11.3 0.00 0.00 0.00 31 1031.6
20260504175941 24 224 3.2 11.3 0.00 0.00 0.00 31 1031.9
20260504175438 25 250 3.2 8.0 0.00 0.00 0.00 30 1031.8
20260504174936 24 203 3.2 4.8 0.00 0.00 0.00 31 1031.8
20260504174433 24 219 4.8 14.5 0.00 0.00 0.00 31 1032.0
20260504173930 25 225 6.4 9.7 0.00 0.00 0.00 30 1032.2
20260504173426 24 236 3.2 3.2 0.00 0.00 0.00 33 1032.0
20260504172924 23 188 1.6 3.2 0.00 0.00 0.00 33 1032.1
20260504172420 23 232 8.0 9.7 0.00 0.00 0.00 34 1032.3
20260504171916 24 251 6.4 11.3 0.00 0.00 0.00 32 1032.5
20260504171414 24 209 4.8 14.5 0.00 0.00 0.00 31 1032.4
20260504170911 23 220 1.6 8.0 0.00 0.00 0.00 34 1032.2
20260504170407 23 235 4.8 8.0 0.00 0.00 0.00 33 1032.5
20260504160326 22 160 1.6 4.8 0.00 0.00 0.00 42 1033.0
20260504150751 20 217 3.2 3.2 0.00 0.00 0.00 50 1033.2
20260504150247 20 222 4.8 4.8 0.00 0.00 0.00 48 1033.1
20260504141217 17 210 8.0 9.7 0.00 0.00 0.00 54 1033.6
20260504140714 17 249 3.2 4.8 0.00 0.00 0.00 55 1033.3
20260504140209 17 199 1.6 8.0 0.00 0.00 0.00 57 1033.3
20260504130638 14 218 0.0 1.6 0.00 0.00 0.00 75 1033.6
20260504130134 13 219 3.2 3.2 0.00 0.00 0.00 77 1033.6
20260504110525 6 44 0.0 0.0 0.00 0.00 0.00 96 1033.7
20260504100442 6 44 0.0 0.0 0.00 0.00 0.00 95 1033.5
20260504081835 7 44 0.0 0.0 0.00 0.00 0.00 92 1033.5
20260504081331 7 44 0.0 0.0 0.00 0.00 0.00 92 1033.6
20260504080827 7 44 0.0 0.0 0.00 0.00 0.00 91 1033.5
20260504080325 7 44 0.0 0.0 0.00 0.00 0.00 91 1033.6
20260504070252 6 88 0.0 1.6 0.00 0.00 0.00 90 1033.3
20260504060212 6 178 1.6 1.6 0.00 0.00 0.00 91 1033.6
20260504050640 6 179 0.0 0.0 0.00 0.00 0.00 91 1033.8
20260504050137 6 179 0.0 0.0 0.00 0.00 0.00 91 1033.8
20260504045634 6 179 0.0 0.0 0.00 0.00 0.00 91 1033.9
20260504045134 6 179 0.0 0.0 0.00 0.00 0.00 91 1034.0
20260504044633 6 179 0.0 0.0 0.00 0.00 0.00 91 1033.9
20260504044129 6 179 0.0 0.0 0.00 0.00 0.00 90 1033.9
20260504043626 6 179 0.0 0.0 0.00 0.00 0.00 90 1034.0
20260504043124 6 179 0.0 0.0 0.00 0.00 0.00 90 1033.9
20260504042621 6 179 0.0 0.0 0.00 0.00 0.00 90 1033.8
20260504042117 6 179 0.0 0.0 0.00 0.00 0.00 90 1033.9
20260504041613 7 179 0.0 0.0 0.00 0.00 0.00 90 1034.0
20260504041110 7 179 0.0 0.0 0.00 0.00 0.00 89 1034.0
20260504040607 7 179 0.0 0.0 0.00 0.00 0.00 89 1033.9
20260504040103 7 179 0.0 0.0 0.00 0.00 0.00 89 1033.9
20260504035600 7 179 0.0 0.0 0.00 0.00 0.00 88 1033.9
20260504035056 7 179 0.0 0.0 0.00 0.00 0.00 88 1033.9
20260504034555 7 179 0.0 0.0 0.00 0.00 0.00 88 1033.9
20260504034051 7 179 0.0 0.0 0.00 0.00 0.00 87 1033.8
20260504033549 7 179 0.0 0.0 0.00 0.00 0.00 87 1033.9
20260504033046 7 179 0.0 0.0 0.00 0.00 0.00 87 1033.7
20260504032543 7 179 0.0 0.0 0.00 0.00 0.00 87 1033.6
20260504032040 7 179 0.0 0.0 0.00 0.00 0.00 86 1033.8
20260504031537 7 179 0.0 0.0 0.00 0.00 0.00 86 1033.8
20260504031033 7 179 0.0 0.0 0.00 0.00 0.00 86 1033.8
20260504030531 7 179 0.0 0.0 0.00 0.00 0.00 86 1033.7
20260504030026 7 179 0.0 0.0 0.00 0.00 0.00 85 1033.7
20260504025524 7 179 0.0 0.0 0.00 0.00 0.00 85 1033.6
20260504025020 7 179 0.0 0.0 0.00 0.00 0.00 84 1033.6
20260504024518 7 179 0.0 0.0 0.00 0.00 0.00 84 1033.8
20260504024014 8 179 0.0 0.0 0.00 0.00 0.00 83 1033.7
20260504023511 8 179 0.0 0.0 0.00 0.00 0.00 82 1033.9
20260504023007 8 179 0.0 0.0 0.00 0.00 0.00 81 1033.5
20260504022503 8 179 0.0 0.0 0.00 0.00 0.00 81 1033.7
20260504021959 8 179 0.0 0.0 0.00 0.00 0.00 80 1033.5
20260504021457 8 179 0.0 0.0 0.00 0.00 0.00 79 1033.8
20260504020954 8 179 0.0 0.0 0.00 0.00 0.00 78 1033.6
20260504020450 8 179 0.0 0.0 0.00 0.00 0.00 78 1033.6
20260504015947 8 179 0.0 0.0 0.00 0.00 0.00 77 1033.5
20260504015443 9 179 0.0 0.0 0.00 0.00 0.00 76 1033.6
20260504014939 9 179 0.0 0.0 0.00 0.00 0.00 75 1033.7
20260504014436 9 179 0.0 0.0 0.00 0.00 0.00 74 1033.5
20260504013932 10 179 0.0 0.0 0.00 0.00 0.00 73 1033.7
20260504013431 10 179 0.0 0.0 0.00 0.00 0.00 72 1033.7
20260504012927 10 179 0.0 0.0 0.00 0.00 0.00 71 1033.4
20260504012425 10 179 0.0 0.0 0.00 0.00 0.00 71 1033.3
20260504011922 10 179 0.0 0.0 0.00 0.00 0.00 69 1033.4
20260504011419 10 179 0.0 0.0 0.00 0.00 0.00 68 1033.3
20260504010915 10 179 0.0 0.0 0.00 0.00 0.00 67 1033.2
20260504010411 10 179 0.0 0.0 0.00 0.00 0.00 65 1033.1
20260504005907 11 179 0.0 0.0 0.00 0.00 0.00 65 1033.0
20260504005404 11 179 0.0 0.0 0.00 0.00 0.00 64 1032.9
20260504004902 11 179 0.0 0.0 0.00 0.00 0.00 63 1033.0
20260504004400 11 179 0.0 0.0 0.00 0.00 0.00 61 1033.1
20260504003856 12 179 0.0 0.0 0.00 0.00 0.00 60 1032.9
20260504003352 12 179 0.0 0.0 0.00 0.00 0.00 59 1032.8
20260504002849 12 179 0.0 0.0 0.00 0.00 0.00 57 1032.8
20260504002346 12 179 0.0 0.0 0.00 0.00 0.00 55 1032.6
20260504001844 13 179 0.0 0.0 0.00 0.00 0.00 54 1032.7
20260504001341 13 179 0.0 0.0 0.00 0.00 0.00 52 1032.7
20260504000837 13 179 0.0 0.0 0.00 0.00 0.00 51 1032.6
20260504000335 14 179 0.0 0.0 0.00 0.00 0.00 50 1032.4
20260503235832 15 179 0.0 0.0 0.00 0.00 0.00 46 1032.5
20260503235330 15 179 0.0 0.0 0.00 0.00 0.00 46 1032.6
20260503234827 15 179 0.0 0.0 0.00 0.00 0.00 43 1032.5
20260503234324 15 178 0.0 0.0 0.00 0.00 0.00 43 1032.5
20260503233822 16 179 0.0 0.0 0.00 0.00 0.00 42 1032.4
20260503233318 16 178 0.0 0.0 0.00 0.00 0.00 42 1032.4
20260503232814 17 179 0.0 0.0 0.00 0.00 0.00 41 1032.5
20260503232312 17 178 0.0 0.0 0.00 0.00 0.00 38 1032.4
20260503231810 18 242 0.0 0.0 0.00 0.00 0.00 34 1032.3
20260503231307 18 243 1.6 4.8 0.00 0.00 0.00 28 1032.3
20260503230802 18 28 0.0 1.6 0.00 0.00 0.00 33 1032.4
20260503230300 18 217 0.0 3.2 0.00 0.00 0.00 27 1032.4
20260503225757 18 41 1.6 1.6 0.00 0.00 0.00 27 1032.5
20260503225252 18 15 0.0 1.6 0.00 0.00 0.00 27 1032.5
20260503224749 20 250 1.6 8.0 0.00 0.00 0.00 25 1032.4
20260503224247 20 247 3.2 3.2 0.00 0.00 0.00 27 1032.5
20260503223744 20 270 4.8 3.2 0.00 0.00 0.00 26 1032.6
20260503223242 20 33 4.8 4.8 0.00 0.00 0.00 25 1032.4
20260503222738 20 29 3.2 3.2 0.00 0.00 0.00 26 1032.4
20260503222236 20 45 1.6 3.2 0.00 0.00 0.00 26 1032.5
20260503221734 20 12 3.2 3.2 0.00 0.00 0.00 24 1032.4
20260503221232 20 218 1.6 8.0 0.00 0.00 0.00 26 1032.3
20260503220728 21 53 1.6 8.0 0.00 0.00 0.00 25 1032.3
20260503220225 21 248 3.2 4.8 0.00 0.00 0.00 25 1032.3
20260503215721 20 225 1.6 3.2 0.00 0.00 0.00 26 1032.4
20260503215219 20 222 1.6 8.0 0.00 0.00 0.00 26 1032.3
20260503214717 20 345 4.8 4.8 0.00 0.00 0.00 26 1032.2
20260503214213 20 213 3.2 4.8 0.00 0.00 0.00 27 1032.3
20260503213711 20 317 3.2 11.3 0.00 0.00 0.00 25 1032.5
20260503213208 20 208 3.2 4.8 0.00 0.00 0.00 24 1032.3
20260503212705 20 175 3.2 8.0 0.00 0.00 0.00 26 1032.4
20260503212202 20 19 1.6 3.2 0.00 0.00 0.00 27 1032.4
20260503211700 21 216 1.6 12.9 0.00 0.00 0.00 26 1032.5
20260503211155 21 216 1.6 3.2 0.00 0.00 0.00 26 1032.5
20260503210652 20 64 1.6 4.8 0.00 0.00 0.00 25 1032.5